LEOPARD

Last updated on Fri Sep 04 2026 00:02:05 GMT+0000 (Coordinated Universal Time)

1 67687U 98067YD 26246.51243851 .00070522 00000+0 54716-3 0 9994 2 67687 51.6249 256.8244 0007955 80.9822 279.2075 15.71118045 32470
UTC large
Height (km)
Speed (km/s)
/
Latitude / Longitude
Inclination (degrees)
Orbital Period (minutes)
Azimuth
Elevation
Range (km)
Doppler Factor

Next 0 passes for location: London (51.5072 / 0.1276)

No passes found over London.
LEOPARD